Regional Weather Roundup
Issued by NWS

Home | Current Version | Previous Version | Graphics & Text | Print | Product List | Glossary On
Versions: 1 2 3 4 5 6 7 8 9 10 11 12 13 14 15 16 17 18 19 20 21 22 23 24 25 26 27 28 29 30 31 32 33 34 35 36 37 38 39 40 41 42 43 44 45 46 47 48 49 50
674
ASUS43 KDMX 300101
RWRIA

WEATHER ROUNDUP FOR IOWA
NATIONAL WEATHER SERVICE DES MOINES IA
800 PM CDT WED MAR 29 2017

NOTE: "FAIR" INDICATES FEW OR NO CLOUDS BELOW 12,000 FEET WITH NO
SIGNIFICANT WEATHER AND/OR OBSTRUCTIONS TO VISIBILITY.

* - THESE STATIONS ARE NOT NWS STATIONS...THUS NOT UNDER NWS
QUALITY CONTROL.  THEY ALSO DO NOT REPORT WEATHER SUCH
AS PRECIPITATION OR FOG.

IAZ001>003-012>014-020>022-031>034-043>046-300200-
   NORTHWEST IOWA

CITY           SKY/WX    TMP DP  RH WIND       PRES   REMARKS
CARROLL *      MIX PCPN  41  41 100 NE24      29.91F
CHEROKEE *     CLOUDY    39  38  97 E23G35    29.97F WCI  29
DENISON *      LGT RAIN  39  39 100 E23G35    29.91F WCI  29
LE MARS *      CLOUDY    41  37  87 E21G31    29.96F
ORANGE CITY *  LGT RAIN  39  37  93 E18G31    29.96F WCI  30
SHELDON *      CLOUDY    39  37  93 E26G35    29.97F WCI  28
SIOUX CITY     CLOUDY    41  38  89 E21G31    29.93S
SPENCER        LGT RAIN  40  37  89 E24G37    30.00F WCI  29
STORM LAKE *   MIX PCPN  39  37  93 E35G45    29.94F WCI  27
$$

IAZ055>058-069>071-079>083-090>094-300200-
   SOUTHWEST IOWA

CITY           SKY/WX    TMP DP  RH WIND       PRES   REMARKS
ATLANTIC *     CLOUDY    41  41 100 NE16G23   29.82F FOG
AUDUBON *      LGT RAIN  41  37  87 NE21G28   29.87F
CLARINDA *     CLOUDY    48  48 100 N13G18    29.77F
COUNCIL BLFS * CLOUDY    41  41 100 NE18G31   29.83R FOG
CRESTON *      RAIN      45  45 100 NE13      29.84R
HARLAN  *      CLOUDY    41  41 100 NE20G28   29.87F
LAMONI         LGT RAIN  48  47  96 E17G24    29.75F
RED OAK *      CLOUDY    45  45 100 NE16G23   29.79F
SHENANDOAH *   CLOUDY    46  45  93 NE20      29.76F
$$

IAZ047>049-059>061-072>074-084-300200-
   CENTRAL IOWA

CITY           SKY/WX    TMP DP  RH WIND       PRES   REMARKS
AMES           CLOUDY    42  42 100 E21G28    29.91F FOG
BOONE *        CLOUDY    41  41 100 E26G38    29.89F FOG
CHARITON *     CLOUDY    46  45  93 E21G26    29.80F FOG
DES MOINES     LGT RAIN  44  42  93 E20G30    29.86F FOG
GRINNELL*      LGT RAIN  42  40  95 E21G29    29.92F
MARSHALLTOWN   CLOUDY    41  40  96 E30G38    29.93F FOG
NEWTON *       CLOUDY    43  41  93 E22G30    29.88F FOG
PELLA *        LGT RAIN  44  43  96 E12       29.89F
PERRY *        CLOUDY    42  41  96 NE20G25   29.89F FOG
$$

IAZ004>006-015-016-023>025-035-036-300200-
   NORTH CENTRAL IOWA

CITY           SKY/WX    TMP DP  RH WIND       PRES   REMARKS
ALGONA *       LGT RAIN  39  39 100 E22G30    30.01F WCI  29
CLARION *      CLOUDY    39  39 100 E25G32    29.99F FOG     WCI  28
ESTHERVILLE    LGT RAIN  38  38 100 E20G29    30.03F WCI  28
FORT DODGE *   CLOUDY    39  36  87 NE24      29.97F WCI  28
MASON CITY     LGT RAIN  38  36  92 E21G32    30.05F FOG     WCI  28
FOREST CITY *  DRIZZLE   37  36  93 E16G24    30.04F WCI  28
WEBSTER CITY * CLOUDY    41  39  93 NE24G31   29.94F FOG
IOWA FALLS *   LGT RAIN  41  39  94 E28G33    29.99S
$$

IAZ007>011-017>019-026>030-037>042-050>054-066-300200-
   NORTHEAST IOWA

CITY           SKY/WX    TMP DP  RH WIND       PRES   REMARKS
CEDAR RAPIDS   LGT RAIN  42  42 100 E25G35    29.95S FOG
CHARLES CITY * LGT RAIN  39  39 100 NE20G30   30.05F WCI  30
CLINTON *      CLOUDY    43  40  89 E24G31    30.01F
DECORAH *      CLOUDY    41  39  93 E14G25    30.08F FOG
DUBUQUE        CLOUDY    39  37  92 E20G30    30.04S WCI  29
MONTICELLO *   MIX PCPN  41  39  93 E20G26    30.00F
OELWEIN *      CLOUDY    39  39 100 E22G32    30.02F FOG     WCI  29
WATERLOO       LGT RAIN  41  38  89 NE21G30   30.01F FOG
$$

IAZ064-065-067-068-078-300200-
   EAST CENTRAL IOWA

CITY           SKY/WX    TMP DP  RH WIND       PRES   REMARKS
DAVENPORT      CLOUDY    44  39  82 E23G30    29.99S
IOWA CITY      LGT RAIN  45  40  82 E17G30    29.96F
MUSCATINE *    CLOUDY    46  41  81 E15G24    29.96F
QUAD CITIES    LGT RAIN  45  39  79 E20       29.98S
$$

IAZ062-063-075>077-085>089-095>099-300200-
   SOUTHEAST IOWA

CITY           SKY/WX    TMP DP  RH WIND       PRES   REMARKS
BURLINGTON     CLOUDY    49  44  83 E13G23    29.90F
FAIRFIELD *    CLOUDY    46  43  87 E20G30    29.87F
FORT MADISON * LGT RAIN  48  46  93 E14G21    29.89F
KEOKUK *       CLOUDY    50  46  87 E21       29.85F
OSKALOOSA *    CLOUDY    45  43  93 E17G24    29.87F
CENTERVILLE *  CLOUDY    46  46 100 E16G25    29.80F
OTTUMWA        CLOUDY    47  44  90 E18G25    29.86F
WASHINGTON *   LGT RAIN  45  45 100 E21G28    29.93F
$$

ABBREVIATIONS USED IN REMARKS
   TC - TEMPERATURES IN CELSIUS
  WCI - WIND CHILL INDEX
   HX - HEAT INDEX
  VSB - VISIBILITY
$$





USA.gov is the U.S. government's official web portal to all federal, state and local government web resources and services.